EW1587 Weather Reports


time (UTC)temp
C
wind
direction
speed
KPH
gust
KPH
rain 1hr
cm
rain 24hr
cm
rain mn
cm
humidity
%
barometer
mb
20260502194544 17 276 16.1 30.6 0.00 0.00 0.00 35 1013.9
20260502194045 17 281 14.5 29.0 0.00 0.00 0.00 35 1014.0
20260502193543 17 277 11.3 38.6 0.00 0.00 0.00 36 1014.2
20260502193049 16 292 20.9 38.6 0.00 0.00 0.00 35 1014.2
20260502192543 17 295 19.3 33.8 0.00 0.00 0.00 35 1014.3
20260502192040 17 257 19.3 29.0 0.00 0.00 0.00 36 1014.2
20260502191544 16 278 11.3 33.8 0.00 0.00 0.00 37 1014.5
20260502191037 16 288 19.3 33.8 0.00 0.00 0.00 36 1014.6
20260502190537 16 284 17.7 29.0 0.00 0.00 0.00 36 1014.7
20260502190035 16 278 16.1 29.0 0.00 0.00 0.00 37 1014.9
20260502185533 16 258 14.5 25.7 0.00 0.00 0.00 39 1014.9
20260502185032 15 274 14.5 27.4 0.00 0.00 0.00 37 1015.1
20260502184535 15 273 16.1 27.4 0.00 0.00 0.00 37 1015.2
20260502184030 15 288 17.7 38.6 0.00 0.00 0.00 38 1015.3
20260502183530 15 291 25.7 38.6 0.00 0.00 0.00 37 1015.4
20260502183030 15 248 16.1 30.6 0.00 0.00 0.00 36 1015.5
20260502182530 15 276 14.5 30.6 0.00 0.00 0.00 37 1015.6
20260502182028 15 267 12.9 25.7 0.00 0.00 0.00 36 1015.7
20260502181529 15 312 11.3 27.4 0.00 0.00 0.00 37 1015.7
20260502181026 15 280 9.7 17.7 0.00 0.00 0.00 37 1015.9
20260502180524 15 249 9.7 22.5 0.00 0.00 0.00 38 1016.0
20260502170509 13 264 11.3 25.7 0.00 0.00 0.00 39 1017.2
20260502164004 12 270 16.1 22.5 0.00 0.00 0.00 40 1017.5
20260502163503 12 290 11.3 24.1 0.00 0.00 0.00 39 1017.7
20260502163001 12 288 12.9 22.5 0.00 0.00 0.00 40 1017.7
20260502162601 12 291 9.7 22.5 0.00 0.00 0.00 42 1017.7
20260502162059 12 274 11.3 25.7 0.00 0.00 0.00 41 1017.9
20260502161600 11 271 16.1 25.7 0.00 0.00 0.00 42 1017.9
20260502161059 11 279 12.9 29.0 0.00 0.00 0.00 41 1018.0
20260502160558 11 260 14.5 29.0 0.00 0.00 0.00 42 1018.1
20260502152047 10 290 17.7 25.7 0.00 0.00 0.00 45 1018.7
20260502151551 10 283 11.3 25.7 0.00 0.00 0.00 47 1018.7
20260502151048 10 292 14.5 27.4 0.00 0.00 0.00 44 1018.8
20260502150544 10 278 19.3 27.4 0.00 0.00 0.00 46 1018.9
20260502130521 5 290 12.9 19.3 0.00 0.00 0.00 66 1019.6
20260502123518 5 288 6.4 12.9 0.00 0.00 0.00 69 1019.7
20260502123018 5 275 4.8 9.7 0.00 0.00 0.00 70 1019.6
20260502122518 4 302 4.8 9.7 0.00 0.00 0.00 70 1019.6
20260502122018 4 288 6.4 11.3 0.00 0.00 0.00 70 1019.7
20260502121534 4 287 8.0 11.3 0.00 0.00 0.00 71 1019.6
20260502121018 4 284 6.4 9.7 0.00 0.00 0.00 72 1019.6
20260502120519 4 287 6.4 9.7 0.00 0.00 0.00 72 1019.7
20260502115517 3 295 6.4 9.7 0.00 0.00 0.00 72 1019.7
20260502115017 3 298 6.4 11.3 0.00 0.00 0.00 71 1019.6
20260502114516 3 303 6.4 11.3 0.00 0.00 0.00 73 1019.6
20260502114017 3 288 6.4 12.9 0.00 0.00 0.00 74 1019.6
20260502113517 3 300 6.4 12.9 0.00 0.00 0.00 73 1019.6
20260502113116 3 298 4.8 9.7 0.00 0.00 0.00 75 1019.6
20260502112514 3 294 4.8 9.7 0.00 0.00 0.00 76 1019.5
20260502112016 3 276 4.8 11.3 0.00 0.00 0.00 78 1019.6
20260502111514 2 284 4.8 11.3 0.00 0.00 0.00 75 1019.5
20260502111013 2 280 3.2 9.7 0.00 0.00 0.00 74 1019.4
20260502110514 2 293 3.2 8.0 0.00 0.00 0.00 75 1019.5
20260502110016 2 290 4.8 8.0 0.00 0.00 0.00 75 1019.5
20260502105514 2 280 4.8 8.0 0.00 0.00 0.00 75 1019.5
20260502105016 2 287 4.8 6.4 0.00 0.00 0.00 75 1019.5
20260502104512 2 293 3.2 8.0 0.00 0.00 0.00 74 1019.5
20260502104012 2 294 3.2 8.0 0.00 0.00 0.00 74 1019.5
20260502103512 2 285 3.2 6.4 0.00 0.00 0.00 74 1019.5
20260502103012 2 290 3.2 6.4 0.00 0.00 0.00 73 1019.5
20260502102511 2 302 3.2 6.4 0.00 0.00 0.00 73 1019.5
20260502102012 2 287 3.2 6.4 0.00 0.00 0.00 73 1019.6
20260502101513 2 315 3.2 9.7 0.00 0.00 0.00 72 1019.5
20260502101011 2 291 3.2 11.3 0.00 0.00 0.00 73 1019.5
20260502100511 2 282 4.8 11.3 0.00 0.00 0.00 73 1019.5
20260502091506 3 295 4.8 9.7 0.00 0.00 0.00 72 1019.3
20260502091003 3 290 6.4 9.7 0.00 0.00 0.00 72 1019.4
20260502090503 3 290 4.8 9.7 0.00 0.00 0.00 73 1019.3
20260502071050 3 288 3.2 8.0 0.00 0.00 0.00 66 1019.6
20260502070550 3 284 4.8 8.0 0.00 0.00 0.00 68 1019.7
20260502070049 3 293 3.2 6.4 0.00 0.00 0.00 68 1019.7
20260502065548 3 290 3.2 6.4 0.00 0.00 0.00 68 1019.7
20260502065047 3 284 4.8 6.4 0.00 0.00 0.00 68 1019.7
20260502064546 3 291 1.6 4.8 0.00 0.00 0.00 68 1019.8
20260502064044 3 284 0.0 4.8 0.00 0.00 0.00 65 1019.8
20260502063543 3 281 1.6 4.8 0.00 0.00 0.00 64 1019.9
20260502063047 3 271 0.0 4.8 0.00 0.00 0.00 64 1019.9
20260502062543 3 269 1.6 3.2 0.00 0.00 0.00 63 1019.9
20260502062042 3 276 0.0 4.8 0.00 0.00 0.00 64 1019.8
20260502061542 4 266 1.6 4.8 0.00 0.00 0.00 63 1019.8
20260502061040 4 280 1.6 4.8 0.00 0.00 0.00 63 1019.8
20260502060540 4 277 0.0 3.2 0.00 0.00 0.00 62 1019.9
20260502060038 4 276 0.0 3.2 0.00 0.00 0.00 61 1019.8
20260502055539 4 261 1.6 4.8 0.00 0.00 0.00 61 1019.9
20260502055037 5 274 0.0 4.8 0.00 0.00 0.00 61 1019.8
20260502054541 5 270 1.6 4.8 0.00 0.00 0.00 61 1019.9
20260502054036 5 276 1.6 6.4 0.00 0.00 0.00 61 1019.8
20260502053532 5 266 1.6 8.0 0.00 0.00 0.00 61 1019.9
20260502053036 5 280 1.6 8.0 0.00 0.00 0.00 61 1019.9
20260502052530 5 281 4.8 8.0 0.00 0.00 0.00 58 1020.0
20260502052031 6 292 4.8 8.0 0.00 0.00 0.00 57 1020.0
20260502051527 6 271 3.2 8.0 0.00 0.00 0.00 55 1020.0
20260502051026 6 290 4.8 9.7 0.00 0.00 0.00 53 1020.0
20260502050527 6 290 4.8 9.7 0.00 0.00 0.00 53 1020.0
20260502050031 6 285 4.8 11.3 0.00 0.00 0.00 52 1020.0
20260502045525 6 288 6.4 11.3 0.00 0.00 0.00 52 1020.0
20260502045025 6 290 6.4 8.0 0.00 0.00 0.00 54 1020.0
20260502044525 6 287 3.2 8.0 0.00 0.00 0.00 56 1019.9
20260502044023 6 288 3.2 6.4 0.00 0.00 0.00 57 1019.9
20260502043523 6 298 4.8 8.0 0.00 0.00 0.00 55 1019.9
20260502043023 6 290 4.8 8.0 0.00 0.00 0.00 56 1019.9
20260502042524 6 284 3.2 6.4 0.00 0.00 0.00 59 1019.9
20260502042025 6 280 1.6 6.4 0.00 0.00 0.00 59 1019.9
20260502041523 6 264 0.0 8.0 0.00 0.00 0.00 58 1019.9
20260502041024 6 298 4.8 8.0 0.00 0.00 0.00 59 1020.0
20260502040525 6 297 4.8 8.0 0.00 0.00 0.00 57 1020.0
20260502040023 6 290 1.6 4.8 0.00 0.00 0.00 58 1019.9
20260502035523 6 281 0.0 3.2 0.00 0.00 0.00 60 1019.9
20260502035023 6 285 0.0 3.2 0.00 0.00 0.00 59 1019.9
20260502034523 6 273 0.0 3.2 0.00 0.00 0.00 58 1019.9
20260502034023 6 283 0.0 1.6 0.00 0.00 0.00 55 1019.9
20260502033522 6 280 0.0 1.6 0.00 0.00 0.00 55 1019.9
20260502033024 6 281 0.0 3.2 0.00 0.00 0.00 54 1019.9
20260502032520 6 271 0.0 3.2 0.00 0.00 0.00 55 1019.9
20260502032020 6 269 0.0 3.2 0.00 0.00 0.00 55 1019.8
20260502031522 6 281 0.0 3.2 0.00 0.00 0.00 54 1019.9
20260502031021 6 277 0.0 1.6 0.00 0.00 0.00 52 1019.9
20260502030521 6 276 0.0 1.6 0.00 0.00 0.00 51 1019.9
20260502030021 6 262 0.0 1.6 0.00 0.00 0.00 51 1019.9
20260502025520 6 260 0.0 1.6 0.00 0.00 0.00 50 1019.9
20260502025019 6 264 1.6 1.6 0.00 0.00 0.00 51 1019.9
20260502024520 6 269 0.0 0.0 0.00 0.00 0.00 52 1019.9
20260502024020 6 263 0.0 1.6 0.00 0.00 0.00 53 1019.9
20260502023519 7 257 0.0 1.6 0.00 0.00 0.00 54 1019.9
20260502023019 7 281 0.0 1.6 0.00 0.00 0.00 56 1019.9
20260502022518 7 281 0.0 1.6 0.00 0.00 0.00 54 1019.9
20260502022020 7 283 0.0 3.2 0.00 0.00 0.00 52 1019.9
20260502021518 7 276 0.0 3.2 0.00 0.00 0.00 51 1019.8
20260502021017 7 280 1.6 4.8 0.00 0.00 0.00 53 1019.8
20260502020517 7 285 3.2 4.8 0.00 0.00 0.00 53 1019.8
20260502020017 7 291 0.0 3.2 0.00 0.00 0.00 53 1019.6
20260502015520 7 278 0.0 3.2 0.00 0.00 0.00 49 1019.6
20260502015017 7 273 0.0 3.2 0.00 0.00 0.00 46 1019.6
20260502014526 7 276 0.0 1.6 0.00 0.00 0.00 45 1019.4
20260502014017 7 296 0.0 1.6 0.00 0.00 0.00 43 1019.5
20260502013519 8 297 0.0 1.6 0.00 0.00 0.00 42 1019.5
20260502013017 8 297 0.0 3.2 0.00 0.00 0.00 42 1019.5
20260502012516 8 303 0.0 3.2 0.00 0.00 0.00 41 1019.4
20260502012018 8 309 0.0 3.2 0.00 0.00 0.00 41 1019.4
20260502011516 8 294 0.0 3.2 0.00 0.00 0.00 41 1019.4
20260502011016 9 325 0.0 1.6 0.00 0.00 0.00 37 1019.3
20260502010515 10 326 0.0 1.6 0.00 0.00 0.00 37 1019.3
20260502010015 10 323 0.0 4.8 0.00 0.00 0.00 36 1019.3
20260502005515 10 299 0.0 4.8 0.00 0.00 0.00 36 1019.3
20260502005017 10 311 0.0 3.2 0.00 0.00 0.00 35 1019.3
20260502004530 10 320 0.0 1.6 0.00 0.00 0.00 36 1019.2
20260502004013 11 32 0.0 3.2 0.00 0.00 0.00 35 1019.2
20260502003513 10 4 0.0 6.4 0.00 0.00 0.00 36 1019.2
20260502003014 10 25 1.6 8.0 0.00 0.00 0.00 35 1019.2
20260502002513 10 27 3.2 9.7 0.00 0.00 0.00 35 1019.3
20260502002012 10 29 4.8 9.7 0.00 0.00 0.00 34 1019.3
20260502001513 11 56 0.0 4.8 0.00 0.00 0.00 35 1019.3
20260502001012 11 18 0.0 4.8 0.00 0.00 0.00 35 1019.3
20260502000510 11 345 1.6 6.4 0.00 0.00 0.00 34 1019.3
20260502000010 11 64 0.0 11.3 0.00 0.00 0.00 34 1019.3
20260501235510 11 349 3.2 11.3 0.00 0.00 0.00 34 1019.3
20260501235010 11 12 0.0 9.7 0.00 0.00 0.00 36 1019.3
20260501234510 11 287 0.0 11.3 0.00 0.00 0.00 35 1019.4
20260501234010 11 284 3.2 16.1 0.00 0.00 0.00 35 1019.3
20260501233509 11 280 8.0 16.1 0.00 0.00 0.00 34 1019.3
20260501233010 11 326 3.2 17.7 0.00 0.00 0.00 36 1019.3
20260501232509 11 277 3.2 12.9 0.00 0.00 0.00 36 1019.3
20260501232009 11 324 4.8 16.1 0.00 0.00 0.00 34 1019.3
20260501231507 11 297 4.8 16.1 0.00 0.00 0.00 35 1019.4
20260501231007 11 343 4.8 16.1 0.00 0.00 0.00 36 1019.4
20260501230507 11 51 4.8 12.9 0.00 0.00 0.00 34 1019.5
20260501230006 11 347 4.8 20.9 0.00 0.00 0.00 36 1019.4
20260501225505 10 46 11.3 20.9 0.00 0.00 0.00 37 1019.3
20260501225005 10 85 1.6 9.7 0.00 0.00 0.00 36 1019.4
20260501224505 10 92 8.0 12.9 0.00 0.00 0.00 36 1019.4
20260501224003 10 86 8.0 12.9 0.00 0.00 0.00 36 1019.4
20260501223504 10 64 6.4 17.7 0.00 0.00 0.00 36 1019.4
20260501223007 10 91 11.3 17.7 0.00 0.00 0.00 35 1019.5
20260501222503 10 55 6.4 16.1 0.00 0.00 0.00 37 1019.5
20260501222003 10 62 9.7 12.9 0.00 0.00 0.00 35 1019.5
20260501221503 10 73 9.7 16.1 0.00 0.00 0.00 35 1019.6
20260501221002 10 47 11.3 16.1 0.00 0.00 0.00 35 1019.6
20260501220503 10 358 4.8 12.9 0.00 0.00 0.00 35 1019.5
20260501220005 10 349 4.8 12.9 0.00 0.00 0.00 36 1019.6
20260501215503 10 338 3.2 16.1 0.00 0.00 0.00 38 1019.6
20260501215002 9 51 8.0 22.5 0.00 0.00 0.00 37 1019.6
20260501214502 10 65 11.3 22.5 0.00 0.00 0.00 37 1019.6
20260501214001 10 67 6.4 14.5 0.00 0.00 0.00 39 1019.5
20260501213501 10 61 8.0 16.1 0.00 0.00 0.00 38 1019.6
20260501213001 9 99 8.0 17.7 0.00 0.00 0.00 39 1019.6
20260501212501 9 41 12.9 19.3 0.00 0.00 0.00 38 1019.6
20260501212001 9 58 4.8 16.1 0.00 0.00 0.00 39 1019.7
20260501211501 9 58 8.0 16.1 0.00 0.00 0.00 39 1019.7
20260501211103 9 22 6.4 20.9 0.00 0.00 0.00 39 1019.8
20260501210600 9 64 6.4 25.7 0.00 0.00 0.00 38 1019.8
20260501210100 9 74 6.4 25.7 0.00 0.00 0.00 38 1019.8
20260501205600 10 37 6.4 16.1 0.00 0.00 0.00 38 1019.8
20260501205059 9 250 3.2 16.1 0.00 0.00 0.00 39 1019.8
20260501204559 9 88 4.8 24.1 0.00 0.00 0.00 38 1019.9
20260501204059 9 74 16.1 29.0 0.00 0.00 0.00 38 1019.9
20260501203559 9 70 16.1 29.0 0.00 0.00 0.00 39 1020.0
20260501203101 9 70 17.7 25.7 0.00 0.00 0.00 38 1020.0
20260501202559 10 81 12.9 17.7 0.00 0.00 0.00 37 1019.9
20260501202100 10 46 8.0 17.7 0.00 0.00 0.00 37 1020.0
20260501201558 10 355 3.2 16.1 0.00 0.00 0.00 38 1020.0
20260501201056 10 294 4.8 17.7 0.00 0.00 0.00 38 1020.1
20260501200555 9 4 6.4 17.7 0.00 0.00 0.00 39 1020.1
20260501200056 9 37 8.0 16.1 0.00 0.00 0.00 39 1020.1
20260501195555 9 75 11.3 19.3 0.00 0.00 0.00 38 1020.2
20260501195056 10 339 9.7 20.9 0.00 0.00 0.00 38 1020.3